Voltar ao catálogo

STARLINK-3156

AtivoComunicaçõesVLEO
NORAD 49458·PAYLOAD·🇺🇸 United States

Lançado Nov 13, 2021 de Cape Canaveral Space Force Station

Loading…

Próximas Passagens (próximas 24 horas)

TLE

AtualizadoSource: CelesTrak SupGP

Época: Sep 14, 2026, 21:48 UTC

1 49458C 21104BC  26257.90881944  .00042810  00000+0  12994-2 0  2571
2 49458  53.1576  77.9427 0001226  83.4172 200.4127 15.33519072    14

Acompanhe STARLINK-3156 em tempo real com AllMySat

Download on the App Store